This demonstration page uses our WeatherBlox Daily Observations layout. Learn more.

Left ArrowRight Arrow

Hourly Observations for July 26, 2020

Temp ( °F °C ) Dew Point ( °F °C ) Humidity (%) Winds ( mph kmh ) Pressure ( in mb ) Visibility ( mi km ) Precip ( " mm )
12:54 am 00:54 Clear 79 26.1 72 22.2 79 79 S 10 17 29.92 1013 10 16.0934 0 0
1:54 am 01:54 Clear 79 26.1 71 21.7 77 77 S 12 19 29.93 1014 10 16.0934 0 0
2:54 am 02:54 Cloudy 81 27.2 71 21.7 72 72 WSW 8 13 29.96 1015 10 16.0934 0 0
3:54 am 03:54 Mostly Clear 78 25.6 71 21.7 79 79 S 8 13 29.95 1014 10 16.0934 0.001 0.001
4:54 am 04:54 Clear 76 24.4 71 21.7 85 85 S 8 13 29.93 1014 10 16.0934 0 0
5:54 am 05:54 Clear 75 23.9 71 21.7 88 88 S 7 11 29.91 1013 10 16.0934 0 0
6:54 am 06:54 Sunny 76 24.4 71 21.7 85 85 S 12 19 29.9 1012 9 14.48406 0 0
7:54 am 07:54 Sunny 77 25 71 21.7 82 82 S 14 22 29.92 1013 9 14.48406 0 0
8:54 am 08:54 Sunny 80 26.7 71 21.7 74 74 SSW 9 15 29.95 1014 9 14.48406 0 0
9:54 am 09:54 Mostly Cloudy 83 28.3 72 22.2 70 70 SSW 13 20 29.96 1014 9 14.48406 0 0
10:54 am 10:54 Cloudy 83 28.3 72 22.2 70 70 SW 9 15 29.97 1015 9 14.48406 0 0
11:54 am 11:54 Cloudy 83 28.3 72 22.2 70 70 SSW 8 13 29.97 1015 9 14.48406 0 0
12:54 pm 12:54 Partly Cloudy 83 28.3 74 23.3 74 74 SSW 9 15 29.97 1015 9 14.48406 0 0
1:54 pm 13:54 Mostly Sunny 87 30.6 74 23.3 65 65 VRB 3 6 29.94 1014 9 14.48406 0 0
2:54 pm 14:54 Mostly Cloudy 86 30 75 23.9 70 70 SSW 12 19 29.95 1014 9 14.48406 0 0
3:23 pm 15:23 Mostly Cloudy 86 30 74 23.3 67 67 S 7 11 29.92 1013 9 14.48406 0 0
3:54 pm 15:54 Partly Cloudy 87 30.6 75 23.9 67 67 S 5 7 29.94 1014 9 14.48406 0 0
4:54 pm 16:54 Mostly Cloudy 88 31.1 73 22.8 61 61 N 5 7 29.93 1013 9 14.48406 0 0
5:14 pm 17:14 Mostly Cloudy with Nearby Thunderstorms 86 30 72 22.2 63 63 NNE 18 30 29.9 1012 9 14.48406 0 0
5:37 pm 17:37 Cloudy 78 25.6 65 18.3 64 64 NE 16 26 29.9 1013 10 16.0934 0 0
5:54 pm 17:54 Mostly Cloudy 77 25 66 18.9 69 69 ENE 13 20 29.93 1014 10 16.0934 0 0
6:54 pm 18:54 Mostly Cloudy 77 25 71 21.7 82 82 SSE 13 20 29.97 1015 9 14.48406 0 0
7:04 pm 19:04 Mostly Cloudy 77 25 71 21.7 82 82 S 14 22 29.95 1014 10 16.0934 0 0
7:54 pm 19:54 Cloudy 76 24.4 71 21.7 85 85 SSW 10 17 29.99 1016 10 16.0934 0 0
8:54 pm 20:54 Cloudy with Light Rain 73 22.8 69 20.6 87 87 SW 8 13 30.01 1016 9 14.48406 0.01 0.254
9:54 pm 21:54 Mostly Cloudy with Light Rain 74 23.3 70 21.1 88 88 WSW 8 13 30.03 1017 9 14.48406 0.07 1.778
10:54 pm 22:54 Cloudy with Light Rain 73 22.8 70 21.1 90 90 N 7 11 30.05 1018 10 16.0934 0.03 0.762
11:54 pm 23:54 Mostly Cloudy with Rain 74 23.3 70 21.1 88 88 W 9 15 30.02 1017 7 11.26538 0.1 2.54

Powered by AerisWeather